カタログに戻る

ATLAS 5 CENTAUR DEB

運用中HEO
NORAD 45473·DEBRIS·🇺🇸 United States

打ち上げ Oct 17, 2018 から Cape Canaveral Space Force Station

Loading…

次のパス (今後24時間)

TLE

最新Source: Space-Track

元期: Sep 14, 2026, 06:48 UTC

1 45473U 18079BV  26257.28391591 -.00000139  00000-0  00000-0 0  9992
2 45473  13.0671  62.1176 4525967 254.8375  52.2755  1.70639773 43239

AllMySatでATLAS 5 CENTAUR DEBをリアルタイム追跡

Download on the App Store